Tracking 27086 objects as of 23-Mar-2023
HD Live streaming from Space Station
objects crossing your sky now

SL-14 R/B

Track SL-14 R/B now!
10-day predictions


NORAD ID: 22287
Int'l Code: 1992-094B
Perigee: 625.0 km
Apogee: 657.4 km
Inclination: 82.5 °
Period: 97.4 minutes
Semi major axis: 7012 km
RCS: 4.3914 m2 (large)
Launch date: December 25, 1992
Source: Commonwealth of Independent States (former USSR) (CIS)
Launch site: PLESETSK MISSILE AND SPACE COMPLEX (PKMTR)

Note: This is a ROCKET BODY
Your satellite tracking list
Your tracking list is empty




NASA's NSSDC Master Catalog

Two Line Element Set (TLE):
1 22287U 92094B   23081.07780798  .00000562  00000-0  73583-4 0  9998
2 22287  82.5209 280.8115 0023117 287.3458  72.5226 14.78511674629358
Source of the keplerian elements: AFSPC